Location: Newark
(49.3667°N, 21.6167°E)
Time: 22:44:13
(UTC+00:00)

Envisat - Pass Details

Date: 11 December 2019
Orbit: 764 x 766 km, 98.1° (Epoch: 21 January)

Event Time Altitude Azimuth Distance (km) Brightness Sun altitude
Rises 16:59:14 0° 185° (S) 3,221 6.4 -22.4°
Reaches altitude 10° 17:01:39 10° 192° (SSW) 2,299 5.7 -22.8°
Maximum altitude 17:06:26 41° 263° (W) 1,097 4.3 -23.6°
Drops below altitude 10° 17:11:15 10° 333° (NNW) 2,316 5.7 -24.4°
Sets 17:13:42 0° 341° (NNW) 3,247 6.4 -24.7°
